CW1792 Weather Reports


Display with metric or nautical units.
time (UTC)temp
F
wind
direction
speed
MPH
gust
MPH
rain 1hr
in
rain 24hr
in
rain mn
in
humidity
%
barometer
mb
20170725043755 66 359 1.0 2.0 0.00 0.00 0.00 74 1011.2
20170725043256 66 356 1.0 2.0 0.00 0.00 0.00 73 1011.1
20170725042755 67 353 1.0 3.0 0.00 0.00 0.00 72 1011.1
20170725042255 67 2 2.0 5.0 0.00 0.00 0.00 72 1011.0
20170725041755 67 0 0.0 3.0 0.00 0.00 0.00 71 1010.8
20170725041255 68 336 1.0 5.0 0.00 0.00 0.00 66 1010.7
20170725040755 68 20 1.0 6.0 0.00 0.00 0.00 62 1010.6
20170725040255 68 10 2.0 3.0 0.00 0.00 0.00 57 1010.5
20170725035755 68 70 1.0 3.0 0.00 0.00 0.00 57 1010.4
20170725035256 69 80 2.0 6.0 0.00 0.00 0.00 57 1010.2
20170725034755 69 103 1.0 5.0 0.00 0.00 0.00 56 1010.2
20170725034255 69 108 2.0 6.0 0.00 0.00 0.00 55 1010.1
20170725033754 69 100 2.0 6.0 0.00 0.00 0.00 55 1010.1
20170725033255 69 106 3.0 9.0 0.00 0.00 0.00 60 1010.1
20170725032755 69 133 3.0 7.0 0.00 0.00 0.00 55 1010.1
20170725032255 69 147 2.0 8.0 0.00 0.00 0.00 56 1010.0
20170725031755 69 114 5.0 10.0 0.00 0.00 0.00 61 1009.9
20170725031255 69 111 2.0 6.0 0.00 0.00 0.00 59 1009.9
20170725030755 70 100 3.0 7.0 0.00 0.00 0.00 58 1009.8
20170725030255 70 160 2.0 6.0 0.00 0.00 0.00 57 1009.9
20170725025755 71 98 2.0 12.0 0.00 0.00 0.00 52 1009.8
20170725025255 71 143 6.0 10.0 0.00 0.00 0.00 52 1009.8
20170725024755 71 124 2.0 13.0 0.00 0.00 0.00 52 1009.7
20170725024255 72 120 3.0 7.0 0.00 0.00 0.00 52 1009.7
20170725023755 72 105 4.0 13.0 0.00 0.00 0.00 52 1009.7
20170725023255 72 120 5.0 12.0 0.00 0.00 0.00 51 1009.7
20170725022755 72 129 5.0 13.0 0.00 0.00 0.00 52 1009.6
20170725022255 72 117 5.0 12.0 0.00 0.00 0.00 53 1009.6
20170725021755 73 95 4.0 12.0 0.00 0.00 0.00 53 1009.6
20170725021255 73 100 3.0 10.0 0.00 0.00 0.00 54 1009.5
20170725020755 73 98 6.0 12.0 0.00 0.00 0.00 52 1009.5
20170725020255 74 104 5.0 13.0 0.00 0.00 0.00 51 1009.5
20170725015755 74 81 5.0 12.0 0.00 0.00 0.00 51 1009.5
20170725015255 75 75 6.0 10.0 0.00 0.00 0.00 48 1009.5
20170725014755 76 80 3.0 6.0 0.00 0.00 0.00 47 1009.5
20170725014255 77 110 4.0 6.0 0.00 0.00 0.00 46 1009.4
20170725013755 77 157 3.0 8.0 0.00 0.00 0.00 40 1009.3
20170725013255 78 219 3.0 7.0 0.00 0.00 0.00 39 1009.1
20170725012755 78 187 3.0 8.0 0.00 0.00 0.00 39 1009.0
20170725012255 78 289 3.0 13.0 0.00 0.00 0.00 39 1009.0
20170725011755 78 196 7.0 13.0 0.00 0.00 0.00 38 1008.9
20170725011255 78 179 6.0 16.0 0.00 0.00 0.00 38 1008.9
20170725010754 78 179 5.0 14.0 0.00 0.00 0.00 39 1008.7
20170725010255 79 181 5.0 14.0 0.00 0.00 0.00 38 1008.8
20170725005754 79 209 5.0 13.0 0.00 0.00 0.00 36 1008.7
20170725005255 79 210 5.0 13.0 0.00 0.00 0.00 37 1008.7
20170725004755 79 196 5.0 13.0 0.00 0.00 0.00 37 1008.8
20170725004255 80 201 8.0 14.0 0.00 0.00 0.00 36 1008.7
20170725003755 80 213 5.0 16.0 0.00 0.00 0.00 36 1008.8
20170725003254 80 185 5.0 12.0 0.00 0.00 0.00 38 1008.9
20170725002755 80 192 5.0 16.0 0.00 0.00 0.00 38 1009.0
20170725002255 80 193 5.0 13.0 0.00 0.00 0.00 37 1009.1
20170725001755 80 114 2.0 12.0 0.00 0.00 0.00 38 1009.3
20170725001255 80 162 4.0 12.0 0.00 0.00 0.00 38 1009.4
20170725000754 79 189 2.0 13.0 0.00 0.00 0.00 40 1009.5
20170725000255 79 185 5.0 16.0 0.00 0.00 0.00 39 1009.6
20170724235755 79 157 3.0 12.0 0.00 0.00 0.00 41 1009.6
20170724235255 79 143 4.0 10.0 0.00 0.00 0.00 39 1009.7
20170724234755 80 173 4.0 12.0 0.00 0.00 0.00 39 1009.6
20170724234255 80 85 5.0 12.0 0.00 0.00 0.00 41 1009.6
20170724233758 80 130 3.0 9.0 0.00 0.00 0.00 40 1009.7
20170724233254 80 185 5.0 8.0 0.00 0.00 0.00 40 1009.7
20170724232755 80 159 2.0 6.0 0.00 0.00 0.00 41 1009.7
20170724232255 80 187 5.0 12.0 0.00 0.00 0.00 40 1009.6
20170724231755 81 162 3.0 10.0 0.00 0.00 0.00 39 1009.6
20170724231254 81 192 3.0 8.0 0.00 0.00 0.00 39 1009.6
20170724230755 81 70 3.0 8.0 0.00 0.00 0.00 40 1009.6
20170724230254 81 136 3.0 12.0 0.00 0.00 0.00 38 1009.5
20170724225755 81 145 3.0 10.0 0.00 0.00 0.00 38 1009.6
20170724225255 82 192 3.0 10.0 0.00 0.00 0.00 40 1009.5
20170724224755 81 88 4.0 13.0 0.00 0.00 0.00 38 1009.6
20170724224255 81 146 5.0 12.0 0.00 0.00 0.00 38 1009.6
20170724223755 81 112 5.0 13.0 0.00 0.00 0.00 37 1009.6
20170724223255 82 153 3.0 13.0 0.00 0.00 0.00 37 1009.6
20170724222755 82 182 4.0 14.0 0.00 0.00 0.00 37 1009.6
20170724222255 82 143 5.0 14.0 0.00 0.00 0.00 34 1009.6
20170724221755 82 133 3.0 17.0 0.00 0.00 0.00 35 1009.7
20170724221255 82 137 5.0 13.0 0.00 0.00 0.00 35 1009.8
20170724220755 83 103 3.0 12.0 0.00 0.00 0.00 37 1009.8
20170724220255 83 121 3.0 12.0 0.00 0.00 0.00 34 1009.7
20170724215755 83 150 3.0 7.0 0.00 0.00 0.00 34 1009.7
20170724215255 83 115 4.0 10.0 0.00 0.00 0.00 33 1009.8
20170724214755 84 126 5.0 13.0 0.00 0.00 0.00 35 1009.8
20170724214255 84 123 4.0 12.0 0.00 0.00 0.00 34 1010.0
20170724213754 84 206 2.0 12.0 0.00 0.00 0.00 31 1010.0
20170724213255 84 147 2.0 7.0 0.00 0.00 0.00 35 1010.0
20170724212755 84 150 2.0 8.0 0.00 0.00 0.00 34 1010.1
20170724212255 84 177 5.0 13.0 0.00 0.00 0.00 31 1010.0
20170724211755 84 186 5.0 9.0 0.00 0.00 0.00 30 1010.1
20170724211255 84 188 3.0 7.0 0.00 0.00 0.00 32 1010.1
20170724210755 84 114 3.0 16.0 0.00 0.00 0.00 30 1010.1
20170724210255 84 117 5.0 12.0 0.00 0.00 0.00 29 1010.1
20170724205755 84 193 4.0 10.0 0.00 0.00 0.00 27 1010.1
20170724205254 84 183 4.0 12.0 0.00 0.00 0.00 32 1010.1
20170724204755 83 171 3.0 12.0 0.00 0.00 0.00 36 1010.1
20170724204254 83 100 6.0 13.0 0.00 0.00 0.00 34 1010.1
20170724203755 83 130 3.0 10.0 0.00 0.00 0.00 38 1010.0
20170724203254 82 84 5.0 13.0 0.00 0.00 0.00 36 1010.1
20170724202755 82 110 7.0 17.0 0.00 0.00 0.00 36 1010.1
20170724202255 82 187 4.0 12.0 0.00 0.00 0.00 40 1010.1
20170724201755 82 87 5.0 13.0 0.00 0.00 0.00 39 1010.2
20170724201255 82 108 5.0 12.0 0.00 0.00 0.00 39 1010.2
20170724200754 81 120 4.0 12.0 0.00 0.00 0.00 39 1010.2
20170724200255 81 107 4.0 9.0 0.00 0.00 0.00 41 1010.2
20170724195755 80 136 5.0 12.0 0.00 0.00 0.00 41 1010.3
20170724195255 80 84 4.0 13.0 0.00 0.00 0.00 44 1010.4
20170724194754 80 100 6.0 13.0 0.00 0.00 0.00 42 1010.4
20170724194254 81 79 5.0 12.0 0.00 0.00 0.00 42 1010.4
20170724193755 80 111 4.0 12.0 0.00 0.00 0.00 40 1010.4
20170724193254 80 102 5.0 12.0 0.00 0.00 0.00 42 1010.3
20170724192755 80 101 3.0 12.0 0.00 0.00 0.00 41 1010.3
20170724192255 80 105 4.0 12.0 0.00 0.00 0.00 41 1010.3
20170724191754 80 119 4.0 12.0 0.00 0.00 0.00 43 1010.3
20170724191254 79 76 2.0 8.0 0.00 0.00 0.00 44 1010.5
20170724190755 79 110 3.0 12.0 0.00 0.00 0.00 41 1010.5
20170724190255 78 98 5.0 16.0 0.00 0.00 0.00 46 1010.6
20170724185755 79 116 6.0 13.0 0.00 0.00 0.00 44 1010.6
20170724185255 79 119 4.0 12.0 0.00 0.00 0.00 44 1010.6
20170724184754 78 138 5.0 12.0 0.00 0.00 0.00 44 1010.6
20170724184255 78 133 7.0 16.0 0.00 0.00 0.00 43 1010.6
20170724183754 78 103 5.0 17.0 0.00 0.00 0.00 44 1010.6
20170724183254 78 114 7.0 16.0 0.00 0.00 0.00 43 1010.5
20170724182755 77 115 7.0 17.0 0.00 0.00 0.00 43 1010.5
20170724182254 78 122 2.0 12.0 0.00 0.00 0.00 42 1010.5
20170724181755 78 111 5.0 18.0 0.00 0.00 0.00 42 1010.5
20170724181255 78 142 3.0 10.0 0.00 0.00 0.00 42 1010.6
20170724180755 77 114 7.0 12.0 0.00 0.00 0.00 40 1010.5
20170724180255 77 99 6.0 12.0 0.00 0.00 0.00 41 1010.5
20170724175755 77 102 5.0 12.0 0.00 0.00 0.00 41 1010.5
20170724175255 77 131 5.0 12.0 0.00 0.00 0.00 42 1010.4
20170724174755 76 104 4.0 12.0 0.00 0.00 0.00 42 1010.5
20170724174255 75 119 5.0 12.0 0.00 0.00 0.00 51 1010.5
20170724173755 74 343 2.0 3.0 0.00 0.00 0.00 53 1010.6
20170724173255 74 355 3.0 5.0 0.00 0.00 0.00 54 1010.6
20170724172754 73 333 3.0 7.0 0.00 0.00 0.00 55 1010.6
20170724172254 72 348 3.0 6.0 0.00 0.00 0.00 56 1010.7
20170724171755 71 23 2.0 5.0 0.00 0.00 0.00 57 1010.7
20170724171255 71 1 3.0 7.0 0.00 0.00 0.00 58 1010.7
20170724170754 70 358 3.0 6.0 0.00 0.00 0.00 60 1010.7
20170724170255 70 348 2.0 6.0 0.00 0.00 0.00 62 1010.7
20170724165755 70 1 2.0 7.0 0.00 0.00 0.00 61 1010.6
20170724165255 69 22 3.0 7.0 0.00 0.00 0.00 62 1010.6
20170724164755 69 71 2.0 6.0 0.00 0.00 0.00 63 1010.6
20170724164255 68 6 3.0 6.0 0.00 0.00 0.00 66 1010.6
20170724163755 68 321 2.0 5.0 0.00 0.00 0.00 68 1010.7
20170724163254 67 80 2.0 5.0 0.00 0.00 0.00 66 1010.8
20170724162755 67 19 2.0 3.0 0.00 0.00 0.00 69 1010.9
20170724162255 66 58 2.0 5.0 0.00 0.00 0.00 72 1010.9
20170724161754 66 324 2.0 5.0 0.00 0.00 0.00 72 1011.0
20170724161255 66 58 2.0 3.0 0.00 0.00 0.00 73 1011.1
20170724160755 65 336 1.0 3.0 0.00 0.00 0.00 75 1011.1
20170724160255 64 342 1.0 3.0 0.00 0.00 0.00 76 1011.1
20170724155754 65 2 1.0 3.0 0.00 0.00 0.00 75 1011.1
20170724155254 64 67 1.0 2.0 0.00 0.00 0.00 78 1011.1
20170724154755 63 7 1.0 5.0 0.00 0.00 0.00 77 1011.2
20170724154255 63 31 0.0 3.0 0.00 0.00 0.00 78 1011.2
20170724153755 63 40 1.0 2.0 0.00 0.00 0.00 78 1011.2
20170724153255 63 53 1.0 3.0 0.00 0.00 0.00 79 1011.2
20170724152755 63 97 2.0 6.0 0.00 0.00 0.00 79 1011.2
20170724152255 62 78 2.0 5.0 0.00 0.00 0.00 79 1011.1
20170724151755 62 66 1.0 3.0 0.00 0.00 0.00 82 1011.1
20170724151254 62 55 1.0 3.0 0.00 0.00 0.00 81 1011.1
20170724150754 62 71 1.0 3.0 0.00 0.00 0.00 80 1011.0
20170724150254 62 80 2.0 3.0 0.00 0.00 0.00 81 1011.0
20170724145755 62 89 1.0 3.0 0.00 0.00 0.00 81 1010.9
20170724145255 62 352 1.0 2.0 0.00 0.00 0.00 82 1011.0
20170724144754 62 52 1.0 3.0 0.00 0.00 0.00 83 1011.1
20170724144254 61 107 1.0 3.0 0.00 0.00 0.00 85 1011.1
20170724143755 61 326 1.0 3.0 0.00 0.00 0.00 85 1011.1
20170724143255 60 44 1.0 1.0 0.00 0.00 0.00 86 1011.1
20170724142755 60 44 0.0 1.0 0.00 0.00 0.00 86 1011.0
20170724142255 60 44 1.0 2.0 0.00 0.00 0.00 85 1010.9
20170724141755 60 44 0.0 0.0 0.00 0.00 0.00 84 1010.8
20170724141255 60 44 0.0 0.0 0.00 0.00 0.00 84 1010.8
20170724140755 60 44 0.0 0.0 0.00 0.00 0.00 84 1010.7
20170724140255 60 44 0.0 2.0 0.00 0.00 0.00 84 1010.7
20170724135754 59 44 0.0 2.0 0.00 0.00 0.00 85 1010.6
20170724135255 59 44 0.0 0.0 0.00 0.00 0.00 84 1010.6
20170724134755 59 44 0.0 0.0 0.00 0.00 0.00 84 1010.6
20170724134255 59 44 0.0 0.0 0.00 0.00 0.00 86 1010.5
20170724133754 59 44 0.0 0.0 0.00 0.00 0.00 85 1010.5
20170724133254 58 44 0.0 0.0 0.00 0.00 0.00 86 1010.4
20170724132754 58 44 0.0 0.0 0.00 0.00 0.00 86 1010.4
20170724132254 58 44 0.0 2.0 0.00 0.00 0.00 86 1010.4
20170724131755 58 44 0.0 1.0 0.00 0.00 0.00 87 1010.2
20170724131255 58 44 1.0 2.0 0.00 0.00 0.00 88 1010.1
20170724130254 58 42 1.0 2.0 0.00 0.00 0.00 91 1010.1
20170724125754 58 3 0.0 0.0 0.00 0.00 0.00 92 1010.0
20170724125254 58 3 0.0 0.0 0.00 0.00 0.00 91 1010.0
20170724124754 59 3 0.0 0.0 0.00 0.00 0.00 91 1009.9
20170724124254 59 3 0.0 0.0 0.00 0.00 0.00 92 1009.9
20170724123755 59 24 0.0 0.0 0.00 0.00 0.00 91 1009.9
20170724123255 59 24 0.0 2.0 0.00 0.00 0.00 91 1009.9
20170724122754 59 24 1.0 2.0 0.00 0.00 0.00 91 1009.9
20170724122255 59 24 0.0 2.0 0.00 0.00 0.00 91 1009.8
20170724121754 59 20 0.0 2.0 0.00 0.00 0.00 91 1009.8
20170724121255 59 0 0.0 0.0 0.00 0.00 0.00 91 1009.7
20170724120754 60 0 0.0 2.0 0.00 0.00 0.00 92 1009.7
20170724120254 60 359 1.0 3.0 0.00 0.00 0.00 93 1009.8
20170724115754 60 359 0.0 0.0 0.00 0.00 0.00 93 1009.8
20170724115255 59 359 0.0 0.0 0.00 0.00 0.00 93 1009.9
20170724114754 59 359 0.0 0.0 0.00 0.00 0.00 93 1010.0
20170724114255 59 359 0.0 0.0 0.00 0.00 0.00 93 1010.0
20170724113755 58 359 0.0 0.0 0.00 0.00 0.00 94 1010.0
20170724113255 58 359 0.0 0.0 0.00 0.00 0.00 94 1010.0
20170724112754 57 359 0.0 0.0 0.00 0.00 0.00 94 1009.9
20170724112254 57 359 0.0 0.0 0.00 0.00 0.00 94 1009.8
20170724111755 57 359 0.0 0.0 0.00 0.00 0.00 94 1009.7
20170724111254 57 359 0.0 0.0 0.00 0.00 0.00 94 1009.7
20170724110755 57 359 0.0 0.0 0.00 0.00 0.00 94 1009.7
20170724110254 57 359 0.0 0.0 0.00 0.00 0.00 94 1009.7
20170724105754 57 359 0.0 0.0 0.00 0.00 0.00 93 1009.7
20170724105254 57 359 0.0 0.0 0.00 0.00 0.00 93 1009.7
20170724104755 57 359 0.0 0.0 0.00 0.00 0.00 93 1009.7
20170724104254 57 359 0.0 0.0 0.00 0.00 0.00 93 1009.8
20170724103755 57 359 0.0 0.0 0.00 0.00 0.00 93 1009.8
20170724103255 57 359 0.0 0.0 0.00 0.00 0.00 93 1009.8
20170724102754 57 359 0.0 0.0 0.00 0.00 0.00 93 1009.8
20170724102254 57 359 0.0 0.0 0.00 0.00 0.00 93 1009.8
20170724101755 57 359 0.0 0.0 0.00 0.00 0.00 93 1009.9
20170724101255 58 359 0.0 0.0 0.00 0.00 0.00 93 1009.9
20170724100754 58 359 0.0 0.0 0.00 0.00 0.00 93 1009.8
20170724100254 58 359 0.0 0.0 0.00 0.00 0.00 93 1009.7
20170724095754 58 359 0.0 0.0 0.00 0.00 0.00 93 1009.8
20170724095254 58 359 0.0 0.0 0.00 0.00 0.00 93 1009.8
20170724094754 58 359 0.0 0.0 0.00 0.00 0.00 93 1009.8
20170724094254 58 359 0.0 0.0 0.00 0.00 0.00 93 1009.8
20170724093755 58 359 0.0 0.0 0.00 0.00 0.00 93 1009.9
20170724093254 58 359 0.0 0.0 0.00 0.00 0.00 92 1009.9
20170724092754 59 359 0.0 0.0 0.00 0.00 0.00 92 1010.0
20170724092254 59 359 0.0 0.0 0.00 0.00 0.00 91 1010.0
20170724091757 59 359 0.0 0.0 0.00 0.00 0.00 92 1010.0
20170724091254 59 359 0.0 0.0 0.00 0.00 0.00 92 1010.0
20170724090755 59 359 0.0 0.0 0.00 0.00 0.00 91 1009.9
20170724090255 59 359 0.0 0.0 0.00 0.00 0.00 92 1009.9
20170724085755 59 359 0.0 0.0 0.00 0.00 0.00 91 1010.0
20170724085254 60 359 0.0 0.0 0.00 0.00 0.00 91 1009.9
20170724084754 60 359 0.0 0.0 0.00 0.00 0.00 91 1009.9
20170724084254 60 356 0.0 0.0 0.00 0.00 0.00 91 1009.9
20170724083755 60 356 0.0 0.0 0.00 0.00 0.00 91 1009.9
20170724083254 60 354 0.0 0.0 0.00 0.00 0.00 91 1009.9
20170724082754 60 356 0.0 0.0 0.00 0.00 0.00 91 1009.9
20170724082254 60 355 0.0 0.0 0.00 0.00 0.00 91 1009.9
20170724081754 60 357 0.0 0.0 0.00 0.00 0.00 91 1009.8
20170724081254 60 0 0.0 0.0 0.00 0.00 0.00 91 1009.8
20170724080755 60 0 0.0 0.0 0.00 0.00 0.00 91 1009.9
20170724080254 60 355 0.0 0.0 0.00 0.00 0.00 91 1009.9
20170724075754 61 359 0.0 0.0 0.00 0.00 0.00 91 1009.9
20170724075254 61 358 0.0 0.0 0.00 0.00 0.00 91 1009.9
20170724074754 61 351 0.0 0.0 0.00 0.00 0.00 91 1010.0
20170724074254 61 354 0.0 0.0 0.00 0.00 0.00 91 1010.0
20170724073755 61 0 0.0 0.0 0.00 0.00 0.00 91 1010.0
20170724073255 61 354 0.0 0.0 0.00 0.00 0.00 90 1010.0
20170724072755 61 354 0.0 0.0 0.00 0.00 0.00 90 1010.0
20170724072254 62 349 0.0 0.0 0.00 0.00 0.00 89 1010.1
20170724071754 62 353 0.0 0.0 0.00 0.00 0.00 89 1010.2
20170724071254 62 351 0.0 0.0 0.00 0.00 0.00 88 1010.1
20170724070754 63 354 0.0 0.0 0.00 0.00 0.00 87 1010.1
20170724070254 63 358 0.0 0.0 0.00 0.00 0.00 88 1010.1
20170724065754 63 357 0.0 0.0 0.00 0.00 0.00 89 1010.0
20170724065254 62 349 0.0 0.0 0.00 0.00 0.00 88 1010.0
20170724064755 62 348 0.0 0.0 0.00 0.00 0.00 88 1010.0
20170724064255 63 353 0.0 0.0 0.00 0.00 0.00 88 1010.0
20170724063754 63 357 0.0 0.0 0.00 0.00 0.00 87 1010.0
20170724063254 63 356 0.0 0.0 0.00 0.00 0.00 86 1010.0
20170724062754 63 353 0.0 0.0 0.00 0.00 0.00 87 1010.0
20170724062254 63 356 0.0 0.0 0.00 0.00 0.00 86 1010.0
20170724061754 64 355 0.0 0.0 0.00 0.00 0.00 85 1010.0
20170724061254 64 349 0.0 0.0 0.00 0.00 0.00 83 1010.0
20170724060754 65 355 0.0 0.0 0.00 0.00 0.00 82 1010.0
20170724060254 65 354 0.0 0.0 0.00 0.00 0.00 82 1010.0
20170724055754 65 358 0.0 0.0 0.00 0.00 0.00 82 1010.0
20170724055254 66 0 0.0 0.0 0.00 0.00 0.00 82 1010.0
20170724054754 66 0 0.0 0.0 0.00 0.00 0.00 82 1009.9
20170724054255 66 352 0.0 0.0 0.00 0.00 0.00 81 1009.9
20170724053755 66 352 0.0 0.0 0.00 0.00 0.00 80 1009.8
20170724053254 66 356 0.0 0.0 0.00 0.00 0.00 79 1009.8
20170724052757 66 351 0.0 0.0 0.00 0.00 0.00 79 1009.8
20170724051306 67 0 0.0 0.0 0.00 0.00 0.00 78 1009.8
20170724050910 67 354 0.0 0.0 0.00 0.00 0.00 78 1009.7
20170724050255 67 359 0.0 2.0 0.00 0.00 0.00 78 1009.7
20170724045754 67 359 0.0 1.0 0.00 0.00 0.00 78 1009.6
20170724045255 68 359 1.0 2.0 0.00 0.00 0.00 76 1009.6
20170724044754 68 351 0.0 2.0 0.00 0.00 0.00 76 1009.5
20170724044254 68 348 1.0 3.0 0.00 0.00 0.00 76 1009.5